Change the Weather History Date:

Tuesday, August 6, 2013

  Actual Average Record
Temperature  
Mean Temperature 58 °F -  
Max Temperature 71 °F 67 °F 76 °F (1980)
Min Temperature 46 °F 46 °F 36 °F (1984)
Degree Days  
Heating Degree Days 6    
Growing Degree Days 8 (Base 50)    
Moisture  
Dew Point 52 °F    
Average Humidity 80    
Maximum Humidity 100    
Minimum Humidity 57    
Precipitation  
Precipitation 0.00 in - - ()
Sea Level Pressure  
Sea Level Pressure 30.06 in    
Wind  
Wind Speed 2 mph (SSW)    
Max Wind Speed 9 mph    
Max Gust Speed -    
Visibility 9 miles    
Events      
Averages and records for this station are not official NWS values.
T = Trace of Precipitation, MM = Missing Value Source: NWS Daily Summary

Daily Weather History Graph

Daily Weather History Graph

Search for Another Location

Airport or City:

Trip Planner

Search our weather history database for the weather conditions in past years. The results will help you decide how hot, cold, wet, or windy it might be!

Date:

Astronomy

Aug. 06, 2013 Rise Set
Actual Time 5:05 AM AKDT 9:10 PM AKDT
Civil Twilight 4:13 AM AKDT 10:01 PM AKDT
Nautical Twilight 2:52 AM AKDT 11:20 PM AKDT
Astronomical Twilight Sun does not rise 12:36 AM AKDT
Moon 5:20 AM AKDT (8/6) 8:25 PM AKDT (8/6)
Length of Visible Light 17h 48m
Length of Day
16h 05m
Waning Crescent, 0% of the Moon is Illuminated
Aug 6
Waning Crescent
Aug 6
New
Aug 14
First Quarter
Aug 20
Full
Aug 28
Last Quarter

Hourly Weather History & Observations

Time (AKDT) Temp. Dew Point Humidity Pressure Visibility Wind Dir Wind Speed Gust Speed Precip Events Conditions
12:16 AM 53.6 °F 51.8 °F 94% 30.11 in 10.0 mi Calm Calm - N/A   Clear
12:36 AM 53.6 °F 50.0 °F 88% 30.11 in 10.0 mi Calm Calm - N/A   Clear
12:56 AM 51.8 °F 50.0 °F 94% 30.11 in 10.0 mi Calm Calm - N/A   Clear
1:16 AM 51.8 °F 50.0 °F 94% 30.11 in 10.0 mi Calm Calm - N/A   Clear
1:36 AM 51.8 °F 48.2 °F 88% 30.11 in 10.0 mi Calm Calm - N/A   Clear
1:56 AM 51.8 °F 48.2 °F 88% 30.11 in 10.0 mi Calm Calm - N/A   Clear
2:16 AM 50.0 °F 48.2 °F 94% 30.10 in 10.0 mi Calm Calm - N/A   Clear
2:36 AM 48.2 °F 46.4 °F 93% 30.10 in 9.0 mi Calm Calm - N/A   Clear
2:56 AM 48.2 °F 46.4 °F 93% 30.10 in 9.0 mi NNW 4.6 mph - N/A   Clear
3:16 AM 48.2 °F 46.4 °F 93% 30.10 in 10.0 mi Calm Calm - N/A   Scattered Clouds
3:36 AM 48.2 °F 46.4 °F 93% 30.09 in 10.0 mi Calm Calm - N/A   Scattered Clouds
3:56 AM 48.2 °F 46.4 °F 93% 30.09 in 10.0 mi Calm Calm - N/A   Clear
4:16 AM 48.2 °F 46.4 °F 93% 30.09 in 10.0 mi WSW 3.5 mph - N/A   Clear
4:36 AM 46.4 °F 46.4 °F 100% 30.09 in 9.0 mi Calm Calm - N/A   Clear
4:56 AM 46.4 °F 46.4 °F 100% 30.09 in 10.0 mi Calm Calm - N/A   Scattered Clouds
5:16 AM 46.4 °F 44.6 °F 93% 30.09 in 10.0 mi Calm Calm - N/A   Overcast
5:36 AM 46.4 °F 44.6 °F 93% 30.09 in 10.0 mi Calm Calm - N/A   Overcast
5:56 AM 48.2 °F 46.4 °F 93% 30.10 in 0.2 mi Calm Calm - N/A   Overcast
6:16 AM 48.2 °F 48.2 °F 100% 30.10 in 0.2 mi Calm Calm - N/A   Overcast
6:36 AM 48.2 °F 48.2 °F 100% 30.10 in 0.2 mi Calm Calm - N/A   Overcast
6:56 AM 50.0 °F 48.2 °F 94% 30.09 in 0.2 mi NNW 3.5 mph - N/A   Overcast
7:16 AM 51.8 °F 51.8 °F 100% 30.09 in 0.8 mi Calm Calm - N/A   Overcast
7:36 AM 53.6 °F 51.8 °F 94% 30.09 in 1.0 mi WNW 3.5 mph - N/A   Overcast
7:56 AM 53.6 °F 53.6 °F 100% 30.09 in 10.0 mi Calm Calm - N/A   Overcast
8:16 AM 55.4 °F 53.6 °F 94% 30.09 in 10.0 mi Calm Calm - N/A   Overcast
8:36 AM 57.2 °F 53.6 °F 88% 30.09 in 10.0 mi WNW 4.6 mph - N/A   Overcast
8:56 AM 57.2 °F 53.6 °F 88% 30.09 in 10.0 mi WNW 4.6 mph - N/A   Overcast
9:16 AM 59.0 °F 53.6 °F 82% 30.09 in 10.0 mi NNW 5.8 mph - N/A   Overcast
9:36 AM 59.0 °F 53.6 °F 82% 30.09 in 10.0 mi NW 5.8 mph - N/A   Overcast
9:56 AM 60.8 °F 53.6 °F 77% 30.09 in 10.0 mi NW 4.6 mph - N/A   Overcast
10:16 AM 60.8 °F 53.6 °F 77% 30.09 in 10.0 mi Calm Calm - N/A   Overcast
10:36 AM 60.8 °F 53.6 °F 77% 30.08 in 10.0 mi Calm Calm - N/A   Mostly Cloudy
10:56 AM 62.6 °F 53.6 °F 72% 30.08 in 10.0 mi Calm Calm - N/A   Scattered Clouds
11:16 AM 62.6 °F 53.6 °F 72% 30.08 in 10.0 mi Calm Calm - N/A   Mostly Cloudy
11:36 AM 64.4 °F 55.4 °F 73% 30.07 in 10.0 mi SSE 3.5 mph - N/A   Partly Cloudy
11:56 AM 64.4 °F 55.4 °F 73% 30.07 in 10.0 mi SW 6.9 mph - N/A   Mostly Cloudy
12:16 PM 64.4 °F 55.4 °F 73% 30.07 in 10.0 mi SSE 6.9 mph - N/A   Partly Cloudy
12:36 PM 64.4 °F 55.4 °F 73% 30.07 in 10.0 mi South 6.9 mph - N/A   Clear
12:56 PM 66.2 °F 57.2 °F 73% 30.06 in 10.0 mi South 4.6 mph - N/A   Partly Cloudy
1:16 PM 66.2 °F 55.4 °F 68% 30.06 in 10.0 mi South 4.6 mph - N/A   Clear
1:36 PM 66.2 °F 57.2 °F 73% 30.05 in 9.0 mi South 4.6 mph - N/A   Clear
1:56 PM 68.0 °F 55.4 °F 64% 30.05 in 10.0 mi WSW 4.6 mph - N/A   Clear
2:16 PM 68.0 °F 55.4 °F 64% 30.05 in 10.0 mi SSW 5.8 mph - N/A   Clear
2:36 PM 68.0 °F 55.4 °F 64% 30.04 in 10.0 mi South 5.8 mph - N/A   Clear
2:56 PM 69.8 °F 55.4 °F 60% 30.04 in 10.0 mi SSW 4.6 mph - N/A   Clear
3:16 PM 69.8 °F 55.4 °F 60% 30.03 in 10.0 mi SW 5.8 mph - N/A   Clear
3:36 PM 69.8 °F 55.4 °F 60% 30.03 in 10.0 mi SW 5.8 mph - N/A   Clear
3:56 PM 71.6 °F 55.4 °F 57% 30.02 in 10.0 mi SSW 6.9 mph - N/A   Clear
4:16 PM 69.8 °F 55.4 °F 60% 30.02 in 10.0 mi SSW 6.9 mph - N/A   Clear
4:36 PM 69.8 °F 55.4 °F 60% 30.02 in 10.0 mi SW 6.9 mph - N/A   Clear
4:56 PM 68.0 °F 55.4 °F 64% 30.02 in 10.0 mi SSW 8.1 mph - N/A   Clear
5:16 PM 66.2 °F 53.6 °F 64% 30.02 in 10.0 mi SSW 8.1 mph - N/A   Clear
5:36 PM 66.2 °F 53.6 °F 64% 30.02 in 10.0 mi SSW 8.1 mph - N/A   Clear
5:56 PM 66.2 °F 53.6 °F 64% 30.01 in 10.0 mi SSW 9.2 mph - N/A   Clear
6:16 PM 66.2 °F 53.6 °F 64% 30.01 in 10.0 mi SSW 5.8 mph - N/A   Clear
6:36 PM 66.2 °F 55.4 °F 68% 30.01 in 10.0 mi SSW 5.8 mph - N/A   Clear
6:56 PM 66.2 °F 53.6 °F 64% 30.00 in 10.0 mi SSW 4.6 mph - N/A   Clear
7:16 PM 64.4 °F 53.6 °F 68% 30.00 in 10.0 mi SSW 4.6 mph - N/A   Clear
7:36 PM 64.4 °F 53.6 °F 68% 30.00 in 10.0 mi SSW 4.6 mph - N/A   Clear
7:56 PM 64.4 °F 53.6 °F 68% 30.00 in 10.0 mi SW 5.8 mph - N/A   Clear
8:16 PM 62.6 °F 53.6 °F 72% 30.00 in 10.0 mi Calm Calm - N/A   Clear
8:36 PM 60.8 °F 53.6 °F 77% 30.00 in 10.0 mi Calm Calm - N/A   Clear
8:56 PM 59.0 °F 51.8 °F 77% 30.00 in 10.0 mi Calm Calm - N/A   Clear
9:16 PM 57.2 °F 51.8 °F 82% 30.00 in 10.0 mi SW 3.5 mph - N/A   Clear
9:36 PM 57.2 °F 51.8 °F 82% 30.01 in 10.0 mi Calm Calm - N/A   Clear
9:56 PM 57.2 °F 50.0 °F 77% 30.01 in 10.0 mi Calm Calm - N/A   Clear
10:16 PM 57.2 °F 50.0 °F 77% 30.00 in 10.0 mi Calm Calm - N/A   Clear
10:36 PM 55.4 °F 50.0 °F 82% 30.00 in 10.0 mi Calm Calm - N/A   Clear
10:56 PM 55.4 °F 50.0 °F 82% 30.00 in 10.0 mi SSE 3.5 mph - N/A   Clear
11:16 PM 55.4 °F 50.0 °F 82% 30.00 in 10.0 mi SSE 3.5 mph - N/A   Clear
11:36 PM 53.6 °F 48.2 °F 82% 30.00 in 10.0 mi SE 3.5 mph - N/A   Clear
11:56 PM 55.4 °F 50.0 °F 82% 30.00 in 10.0 mi SSE 3.5 mph - N/A   Clear